Date String (YYYY-MM-DD hh:mm:ss) UTC,Instrument flags,Ambient pressure (hPa),Sample flow (lpm),Bypass flow (lpm),Sample temperature (°C),Ambient temperature (°C),ASC tube jacket temperature (°C),LED temperature (°C),Box temperature (°C),Sample RH (%),Span deviation,Mass concentration (μg/m³),Mass concentration (μg/m³),Mass concentration (μg/m³)
DateTimeUTC,F1_M11,P_M11,Q1_M11,Q2_M11,T1_M11,T2_M11,T3_M11,T4_M11,T5_M11,U1_M11,ZSPAN_M11,X0_M11,X2_M11,X1_M11
2022-12-28 08:00:00,,0806.3,4.99,0.00,24.1,22.6,00.0,33.0,25.6,14.3,0000.0,0000.64,0000.15,0000.06
2022-12-28 08:01:00,,0806.2,4.99,0.00,24.1,22.6,00.0,33.0,25.6,14.3,0000.0,0001.05,0000.13,0000.05
2022-12-28 08:02:00,,0806.2,5.00,0.00,24.1,22.6,00.0,33.0,25.7,14.4,0000.0,0000.88,0000.12,0000.05
2022-12-28 08:03:00,,0806.2,5.00,0.00,24.0,22.5,00.0,33.0,25.7,14.3,0000.0,0000.90,0000.12,0000.05
2022-12-28 08:04:00,,0806.2,5.00,0.00,24.1,22.5,00.0,33.0,25.8,14.2,0000.0,0000.94,0000.14,0000.05
2022-12-28 08:05:00,,0806.1,5.00,0.00,24.1,22.5,00.0,33.0,25.8,14.2,0000.0,0000.98,0000.15,0000.05
2022-12-28 08:06:00,,0806.1,5.00,0.00,24.0,22.5,00.0,32.9,25.8,14.2,0000.0,0000.98,0000.15,0000.05
2022-12-28 08:07:00,,0806.2,5.00,0.00,24.0,22.5,00.0,32.9,25.7,14.2,0000.0,0001.05,0000.16,0000.05
2022-12-28 08:08:00,,0806.2,5.00,0.00,24.0,22.4,00.0,32.9,25.6,14.1,0000.0,0001.32,0000.17,0000.06
2022-12-28 08:09:00,,0806.2,5.00,0.00,24.0,22.4,00.0,32.9,25.6,14.2,0000.0,0001.53,0000.16,0000.05
2022-12-28 08:10:00,,0806.3,4.99,0.00,24.0,22.4,00.0,32.9,25.6,14.4,0000.0,0001.56,0000.16,0000.05
2022-12-28 08:11:00,,0806.2,4.99,0.00,24.0,22.4,00.0,32.9,25.6,14.4,0000.0,0001.54,0000.16,0000.05
2022-12-28 08:12:00,,0806.0,5.00,0.00,24.0,22.4,00.0,32.9,25.6,14.2,0000.0,0008.12,0000.34,0000.06
2022-12-28 08:13:00,,0805.9,5.00,0.00,24.0,22.4,00.0,32.9,25.6,14.2,0000.0,0035.56,0001.04,0000.10
2022-12-28 08:14:00,,0806.1,5.01,0.00,23.9,22.3,00.0,32.8,25.6,14.2,0000.0,0035.53,0001.02,0000.10
2022-12-28 08:15:00,,0806.0,4.99,0.00,23.9,22.3,00.0,32.8,25.5,14.2,0000.0,0035.49,0001.00,0000.10
2022-12-28 08:16:00,,0805.8,5.00,0.00,23.9,22.3,00.0,32.8,25.5,14.2,0000.0,0035.48,0001.00,0000.10
2022-12-28 08:17:00,,0805.9,5.00,0.00,23.9,22.2,00.0,32.8,25.5,14.2,0000.0,0035.47,0001.01,0000.10
2022-12-28 08:18:00,,0805.8,5.00,0.00,23.8,22.1,00.0,32.8,25.5,14.3,0000.0,0036.01,0001.02,0000.10
2022-12-28 08:19:00,,0805.9,5.01,0.00,23.8,22.1,00.0,32.7,25.5,14.3,0000.0,0036.78,0001.03,0000.09
2022-12-28 08:20:00,,0805.9,5.00,0.00,23.8,22.1,00.0,32.7,25.5,14.4,0000.0,0036.63,0001.02,0000.10
2022-12-28 08:21:00,,0805.9,4.98,0.00,23.8,22.1,00.0,32.7,25.4,14.3,0000.0,0036.60,0001.02,0000.10
2022-12-28 08:22:00,,0806.1,5.00,0.00,23.7,22.1,00.0,32.7,25.4,14.3,0000.0,0036.65,0001.03,0000.10
2022-12-28 08:23:00,,0806.2,5.00,0.00,23.7,22.1,00.0,32.7,25.4,14.4,0000.0,0032.59,0000.92,0000.09
2022-12-28 08:24:00,,0806.4,5.00,0.00,23.7,22.1,00.0,32.7,25.4,14.4,0000.0,0003.03,0000.15,0000.05
2022-12-28 08:25:00,,0806.5,5.00,0.00,23.7,22.1,00.0,32.6,25.3,14.4,0000.0,0003.02,0000.15,0000.05
2022-12-28 08:26:00,,0806.5,5.00,0.00,23.7,22.1,00.0,32.7,25.3,14.3,0000.0,0003.02,0000.15,0000.05
2022-12-28 08:27:00,,0806.4,5.00,0.00,23.7,22.1,00.0,32.7,25.3,14.2,0000.0,0002.97,0000.13,0000.05
2022-12-28 08:28:00,,0806.4,4.99,0.00,23.7,22.1,00.0,32.7,25.3,14.2,0000.0,0002.91,0000.10,0000.05
2022-12-28 08:29:00,,0806.4,5.00,0.00,23.6,22.1,00.0,32.7,25.3,14.1,0000.0,0001.82,0000.10,0000.05
2022-12-28 08:30:00,,0806.4,5.00,0.00,23.6,22.1,00.0,32.7,25.3,14.1,0000.0,0000.30,0000.10,0000.05
2022-12-28 08:31:00,,0806.4,5.01,0.00,23.6,22.1,00.0,32.6,25.2,14.2,0000.0,0000.29,0000.09,0000.04
2022-12-28 08:32:00,,0806.4,5.00,0.00,23.6,22.1,00.0,32.6,25.3,14.3,0000.0,0000.29,0000.09,0000.04
2022-12-28 08:33:00,,0806.4,5.00,0.00,23.6,22.1,00.0,32.6,25.3,14.2,0000.0,0000.26,0000.10,0000.04
2022-12-28 08:34:00,,0806.2,4.99,0.00,23.6,22.1,00.0,32.6,25.2,14.4,0000.0,0000.26,0000.10,0000.04
2022-12-28 08:35:00,,0806.2,5.00,0.00,23.6,22.1,00.0,32.6,25.2,14.2,0000.0,0000.30,0000.11,0000.04
2022-12-28 08:36:00,,0806.1,5.00,0.00,23.6,22.1,00.0,32.6,25.3,14.3,0000.0,0000.29,0000.11,0000.03
2022-12-28 08:37:00,,0806.1,5.01,0.00,23.6,22.1,00.0,32.6,25.3,14.3,0000.0,0000.32,0000.11,0000.03
2022-12-28 08:38:00,,0806.2,5.00,0.00,23.6,22.1,00.0,32.6,25.3,14.3,0000.0,0000.43,0000.13,0000.03
2022-12-28 08:39:00,,0806.3,5.00,0.00,23.6,22.1,00.0,32.5,25.3,14.5,0000.0,0000.47,0000.13,0000.03
2022-12-28 08:40:00,,0806.2,4.99,0.00,23.6,22.0,00.0,32.5,25.2,14.4,0000.0,0000.43,0000.12,0000.03
2022-12-28 08:41:00,,0806.2,5.00,0.00,23.6,22.0,00.0,32.5,25.3,14.4,0000.0,0000.39,0000.11,0000.03
2022-12-28 08:42:00,,0806.1,5.00,0.00,23.6,22.0,00.0,32.5,25.3,14.6,0000.0,0000.44,0000.12,0000.03
2022-12-28 08:43:00,,0806.1,5.00,0.00,23.6,22.0,00.0,32.5,25.3,14.6,0000.0,0000.45,0000.13,0000.04
2022-12-28 08:44:00,,0806.2,5.00,0.00,23.6,22.0,00.0,32.5,25.4,14.6,0000.0,0000.41,0000.13,0000.04
2022-12-28 08:45:00,,0806.2,5.00,0.00,23.6,22.0,00.0,32.5,25.4,14.4,0000.0,0000.37,0000.12,0000.05
2022-12-28 08:46:00,,0806.2,5.00,0.00,23.6,22.0,00.0,32.5,25.3,14.6,0000.0,0000.33,0000.10,0000.05
2022-12-28 08:47:00,,0806.2,5.00,0.00,23.6,22.0,00.0,32.5,25.2,14.8,0000.0,0000.33,0000.10,0000.05
2022-12-28 08:48:00,,0806.1,5.00,0.00,23.5,22.0,00.0,32.5,25.1,15.0,0000.0,0000.31,0000.10,0000.05
2022-12-28 08:49:00,,0805.9,5.00,0.00,23.5,22.0,00.0,32.5,25.2,14.8,0000.0,0000.22,0000.09,0000.05
2022-12-28 08:50:00,,0805.9,5.00,0.00,23.5,22.0,00.0,32.5,25.3,14.4,0000.0,0000.16,0000.09,0000.05
2022-12-28 08:51:00,,0805.9,5.00,0.00,23.5,22.0,00.0,32.5,25.2,14.6,0000.0,0000.16,0000.08,0000.05
2022-12-28 08:52:00,,0806.0,5.00,0.00,23.5,22.0,00.0,32.4,25.2,14.7,0000.0,0000.16,0000.08,0000.05
2022-12-28 08:53:00,,0805.9,4.99,0.00,23.5,22.0,00.0,32.4,25.2,14.4,0000.0,0000.14,0000.08,0000.05
2022-12-28 08:54:00,,0805.9,5.00,0.00,23.5,21.9,00.0,32.4,25.2,14.3,0000.0,0000.24,0000.08,0000.04
2022-12-28 08:55:00,,0806.2,5.00,0.00,23.5,21.9,00.0,32.4,25.1,14.3,0000.0,0000.29,0000.08,0000.04
2022-12-28 08:56:00,,0806.2,5.00,0.00,23.5,21.8,00.0,32.4,25.1,14.5,0000.0,0000.43,0000.11,0000.04
2022-12-28 08:57:00,,0806.2,5.01,0.00,23.4,21.9,00.0,32.4,25.1,14.5,0000.0,0000.46,0000.12,0000.04
2022-12-28 08:58:00,,0806.2,5.00,0.00,23.4,21.9,00.0,32.4,25.2,14.5,0000.0,0000.46,0000.12,0000.04
2022-12-28 08:59:00,,0806.2,4.99,0.00,23.4,21.9,00.0,32.4,25.2,14.7,0000.0,0000.49,0000.13,0000.04
